Time,TemperatureF,DewpointF,PressureIn,WindDirection,WindDirectionDegrees,WindSpeedMPH,WindSpeedGustMPH,Humidity,HourlyPrecipIn,Conditions,Clouds,dailyrainin,SolarRadiationWatts/m^2,SoftwareType,DateUTC
2013-02-26 00:01:00,40.1,36.5,30.28,WNW,287,0.0,0.0,87,0.00,,,0.00,0.0,custom,2013-02-26 08:01:00,
2013-02-26 00:06:00,40.0,36.7,30.28,WNW,287,0.0,0.0,88,0.00,,,0.00,0.0,custom,2013-02-26 08:06:00,
2013-02-26 00:11:00,39.9,36.6,30.29,WNW,287,0.0,0.0,88,0.00,,,0.00,0.0,custom,2013-02-26 08:11:00,
2013-02-26 00:16:00,39.7,36.4,30.29,WNW,287,0.0,0.0,88,0.00,,,0.00,0.0,custom,2013-02-26 08:16:00,
2013-02-26 00:21:00,39.7,36.4,30.29,WNW,287,0.0,0.0,88,0.00,,,0.00,0.0,custom,2013-02-26 08:21:00,
2013-02-26 00:26:00,39.7,36.4,30.29,WNW,287,0.0,0.0,88,0.00,,,0.00,0.0,custom,2013-02-26 08:26:00,
2013-02-26 00:31:00,39.7,36.4,30.28,WNW,287,0.0,0.0,88,0.00,,,0.00,0.0,custom,2013-02-26 08:31:00,
2013-02-26 00:36:00,39.6,36.3,30.28,WNW,287,0.0,0.0,88,0.00,,,0.00,0.0,custom,2013-02-26 08:36:00,
2013-02-26 00:41:00,39.5,36.2,30.28,WNW,287,0.0,0.0,88,0.00,,,0.00,0.0,custom,2013-02-26 08:41:00,
2013-02-26 00:46:00,39.3,36.0,30.29,WNW,287,0.0,0.0,88,0.00,,,0.00,0.0,custom,2013-02-26 08:46:00,
2013-02-26 00:51:00,39.2,35.9,30.29,WNW,287,0.0,0.0,88,0.00,,,0.00,0.0,custom,2013-02-26 08:51:00,
2013-02-26 00:56:00,39.1,35.9,30.29,WNW,287,0.0,0.0,88,0.00,,,0.00,0.0,custom,2013-02-26 08:56:00,
2013-02-26 01:01:00,39.1,35.9,30.29,WNW,287,0.0,0.0,88,0.00,,,0.00,0.0,custom,2013-02-26 09:01:00,
2013-02-26 01:06:00,39.2,35.9,30.29,WNW,287,0.0,0.0,88,0.00,,,0.00,0.0,custom,2013-02-26 09:06:00,
2013-02-26 01:11:00,39.1,35.9,30.28,WNW,287,0.0,0.0,88,0.00,,,0.00,0.0,custom,2013-02-26 09:11:00,
2013-02-26 01:16:00,39.1,35.9,30.29,WNW,287,0.0,0.0,88,0.00,,,0.00,0.0,custom,2013-02-26 09:16:00,
2013-02-26 01:21:00,39.0,35.8,30.29,WNW,287,0.0,0.0,88,0.00,,,0.00,0.0,custom,2013-02-26 09:21:00,
2013-02-26 01:26:00,38.9,35.7,30.29,WNW,287,0.0,0.0,88,0.00,,,0.00,0.0,custom,2013-02-26 09:26:00,
2013-02-26 01:31:00,38.8,35.6,30.28,WNW,287,0.0,0.0,88,0.00,,,0.00,0.0,custom,2013-02-26 09:31:00,
2013-02-26 01:36:00,38.6,35.4,30.28,WNW,287,0.0,0.0,88,0.00,,,0.00,0.0,custom,2013-02-26 09:36:00,
2013-02-26 01:41:00,38.5,35.3,30.28,WNW,287,0.0,0.0,88,0.00,,,0.00,0.0,custom,2013-02-26 09:41:00,
2013-02-26 01:46:00,38.3,35.1,30.28,WNW,287,0.0,0.0,88,0.00,,,0.00,0.0,custom,2013-02-26 09:46:00,
2013-02-26 01:51:00,38.2,35.0,30.28,WNW,287,0.0,0.0,88,0.00,,,0.00,0.0,custom,2013-02-26 09:51:00,
2013-02-26 01:56:00,38.2,35.0,30.27,WNW,287,0.0,0.0,88,0.00,,,0.00,0.0,custom,2013-02-26 09:56:00,
2013-02-26 02:01:00,38.1,34.9,30.28,WNW,287,0.0,0.0,88,0.00,,,0.00,0.0,custom,2013-02-26 10:01:00,
2013-02-26 02:06:00,38.0,34.8,30.27,WNW,287,0.0,0.0,88,0.00,,,0.00,0.0,custom,2013-02-26 10:06:00,
2013-02-26 02:11:00,38.1,34.9,30.27,WNW,287,0.0,0.0,88,0.00,,,0.00,0.0,custom,2013-02-26 10:11:00,
2013-02-26 02:16:00,37.9,35.0,30.27,WNW,287,0.0,0.0,89,0.00,,,0.00,0.0,custom,2013-02-26 10:16:00,
2013-02-26 02:21:00,37.9,35.0,30.27,WNW,287,0.0,0.0,89,0.00,,,0.00,0.0,custom,2013-02-26 10:21:00,
2013-02-26 02:26:00,37.8,34.9,30.27,WNW,287,0.0,0.0,89,0.00,,,0.00,0.0,custom,2013-02-26 10:26:00,
2013-02-26 02:31:00,37.8,34.9,30.27,WNW,287,0.0,0.0,89,0.00,,,0.00,0.0,custom,2013-02-26 10:31:00,
2013-02-26 02:36:00,37.7,34.8,30.27,WNW,287,0.0,0.0,89,0.00,,,0.00,0.0,custom,2013-02-26 10:36:00,
2013-02-26 02:41:00,37.6,34.4,30.27,WNW,287,0.0,0.0,88,0.00,,,0.00,0.0,custom,2013-02-26 10:41:00,
2013-02-26 02:46:00,37.5,34.3,30.28,WNW,287,0.0,0.0,88,0.00,,,0.00,0.0,custom,2013-02-26 10:46:00,
2013-02-26 02:51:00,37.5,34.3,30.27,WNW,287,0.0,0.0,88,0.00,,,0.00,0.0,custom,2013-02-26 10:51:00,
2013-02-26 02:56:00,37.5,34.3,30.27,WNW,287,0.0,0.0,88,0.00,,,0.00,0.0,custom,2013-02-26 10:56:00,
2013-02-26 03:01:00,37.4,34.2,30.28,WNW,287,0.0,0.0,88,0.00,,,0.00,0.0,custom,2013-02-26 11:01:00,
2013-02-26 03:06:00,37.3,34.4,30.27,WNW,287,0.0,0.0,89,0.00,,,0.00,0.0,custom,2013-02-26 11:06:00,
2013-02-26 03:11:00,37.2,34.3,30.27,WNW,287,0.0,0.0,89,0.00,,,0.00,0.0,custom,2013-02-26 11:11:00,
2013-02-26 03:16:00,37.1,34.2,30.27,WNW,287,0.0,0.0,89,0.00,,,0.00,0.0,custom,2013-02-26 11:16:00,
2013-02-26 03:21:00,37.0,34.1,30.27,WNW,287,0.0,0.0,89,0.00,,,0.00,0.0,custom,2013-02-26 11:21:00,
2013-02-26 03:26:00,37.0,34.1,30.27,WNW,287,0.0,0.0,89,0.00,,,0.00,0.0,custom,2013-02-26 11:26:00,
2013-02-26 03:31:00,36.9,33.7,30.27,WNW,287,0.0,0.0,88,0.00,,,0.00,0.0,custom,2013-02-26 11:31:00,
2013-02-26 03:36:00,36.8,33.6,30.27,WNW,287,0.0,0.0,88,0.00,,,0.00,0.0,custom,2013-02-26 11:36:00,
2013-02-26 03:41:00,36.6,33.7,30.27,WNW,287,0.0,0.0,89,0.00,,,0.00,0.0,custom,2013-02-26 11:41:00,
2013-02-26 03:46:00,36.5,33.6,30.27,WNW,287,0.0,0.0,89,0.00,,,0.00,0.0,custom,2013-02-26 11:46:00,
2013-02-26 03:51:00,36.4,33.2,30.27,WNW,287,0.0,0.0,88,0.00,,,0.00,0.0,custom,2013-02-26 11:51:00,
2013-02-26 03:56:00,36.4,33.5,30.27,WNW,287,0.0,0.0,89,0.00,,,0.00,0.0,custom,2013-02-26 11:56:00,
2013-02-26 04:01:00,36.3,33.4,30.27,WNW,287,0.0,0.0,89,0.00,,,0.00,0.0,custom,2013-02-26 12:01:00,
2013-02-26 04:06:00,36.2,33.0,30.27,WNW,287,0.0,0.0,88,0.00,,,0.00,0.0,custom,2013-02-26 12:06:00,
2013-02-26 04:11:00,36.1,32.9,30.27,WNW,287,0.0,0.0,88,0.00,,,0.00,0.0,custom,2013-02-26 12:11:00,
2013-02-26 04:16:00,36.1,32.9,30.27,WNW,287,0.0,0.0,88,0.00,,,0.00,0.0,custom,2013-02-26 12:16:00,
2013-02-26 04:21:00,36.1,32.9,30.27,WNW,287,0.0,0.0,88,0.00,,,0.00,0.0,custom,2013-02-26 12:21:00,
2013-02-26 04:26:00,36.1,32.9,30.27,WNW,287,0.0,0.0,88,0.00,,,0.00,0.0,custom,2013-02-26 12:26:00,
2013-02-26 04:31:00,36.0,32.8,30.27,WNW,287,0.0,0.0,88,0.00,,,0.00,0.0,custom,2013-02-26 12:31:00,
2013-02-26 04:36:00,35.9,32.7,30.27,WNW,287,0.0,0.0,88,0.00,,,0.00,0.0,custom,2013-02-26 12:36:00,
2013-02-26 04:41:00,35.9,33.0,30.27,WNW,287,0.0,0.0,89,0.00,,,0.00,0.0,custom,2013-02-26 12:41:00,
2013-02-26 04:46:00,35.8,32.9,30.27,WNW,287,0.0,0.0,89,0.00,,,0.00,0.0,custom,2013-02-26 12:46:00,
2013-02-26 04:51:00,35.7,32.5,30.27,WNW,287,0.0,0.0,88,0.00,,,0.00,0.0,custom,2013-02-26 12:51:00,
2013-02-26 04:56:00,35.6,32.4,30.27,WNW,287,0.0,0.0,88,0.00,,,0.00,0.0,custom,2013-02-26 12:56:00,
2013-02-26 05:01:00,35.6,32.7,30.27,WNW,287,0.0,0.0,89,0.00,,,0.00,0.0,custom,2013-02-26 13:01:00,
2013-02-26 05:06:00,35.6,32.4,30.27,WNW,287,0.0,0.0,88,0.00,,,0.00,0.0,custom,2013-02-26 13:06:00,
2013-02-26 05:11:00,35.6,32.7,30.27,WNW,287,0.0,0.0,89,0.00,,,0.00,0.0,custom,2013-02-26 13:11:00,
2013-02-26 05:16:00,35.5,32.3,30.27,WNW,287,0.0,0.0,88,0.00,,,0.00,0.0,custom,2013-02-26 13:16:00,
2013-02-26 05:21:00,35.5,32.3,30.27,WNW,287,0.0,0.0,88,0.00,,,0.00,0.0,custom,2013-02-26 13:21:00,
2013-02-26 05:26:00,35.6,32.4,30.27,WNW,287,0.0,0.0,88,0.00,,,0.00,0.0,custom,2013-02-26 13:26:00,
2013-02-26 05:31:00,35.5,32.3,30.28,WNW,287,0.0,0.0,88,0.00,,,0.00,0.0,custom,2013-02-26 13:31:00,
2013-02-26 05:36:00,35.5,32.3,30.29,WNW,287,0.0,0.0,88,0.00,,,0.00,0.0,custom,2013-02-26 13:36:00,
2013-02-26 05:41:00,35.4,32.5,30.29,WNW,287,0.0,0.0,89,0.00,,,0.00,0.0,custom,2013-02-26 13:41:00,
2013-02-26 05:46:00,35.4,32.2,30.29,WNW,287,0.0,0.0,88,0.00,,,0.00,0.0,custom,2013-02-26 13:46:00,
2013-02-26 05:51:00,35.3,32.1,30.29,WNW,287,0.0,0.0,88,0.00,,,0.00,0.0,custom,2013-02-26 13:51:00,
2013-02-26 05:56:00,35.3,32.1,30.29,WNW,287,0.0,0.0,88,0.00,,,0.00,0.0,custom,2013-02-26 13:56:00,
2013-02-26 06:01:00,35.2,32.3,30.29,WNW,287,0.0,0.0,89,0.00,,,0.00,0.0,custom,2013-02-26 14:01:00,
2013-02-26 06:06:00,35.1,32.2,30.29,WNW,287,0.0,0.0,89,0.00,,,0.00,0.0,custom,2013-02-26 14:06:00,
2013-02-26 06:11:00,35.1,32.2,30.29,WNW,287,0.0,0.0,89,0.00,,,0.00,0.0,custom,2013-02-26 14:11:00,
2013-02-26 06:16:00,35.0,31.8,30.29,WNW,287,0.0,0.0,88,0.00,,,0.00,0.0,custom,2013-02-26 14:16:00,
2013-02-26 06:21:00,34.9,31.7,30.29,WNW,287,0.0,0.0,88,0.00,,,0.00,0.0,custom,2013-02-26 14:21:00,
2013-02-26 06:26:00,35.0,31.8,30.29,WNW,287,0.0,0.0,88,0.00,,,0.00,0.0,custom,2013-02-26 14:26:00,
2013-02-26 06:31:00,35.0,31.8,30.29,WNW,287,0.0,0.0,88,0.00,,,0.00,0.0,custom,2013-02-26 14:31:00,
2013-02-26 06:36:00,34.9,31.7,30.29,WNW,287,0.0,0.0,88,0.00,,,0.00,0.0,custom,2013-02-26 14:36:00,
2013-02-26 06:41:00,34.8,31.6,30.29,WNW,287,0.0,0.0,88,0.00,,,0.00,0.0,custom,2013-02-26 14:41:00,
2013-02-26 06:46:00,34.8,31.6,30.29,WNW,287,0.0,0.0,88,0.00,,,0.00,5.0,custom,2013-02-26 14:46:00,
2013-02-26 06:51:00,34.9,31.7,30.29,WNW,287,0.0,0.0,88,0.00,,,0.00,7.0,custom,2013-02-26 14:51:00,
2013-02-26 06:56:00,34.9,31.7,30.29,WNW,287,0.0,0.0,88,0.00,,,0.00,12.0,custom,2013-02-26 14:56:00,
2013-02-26 07:01:00,34.9,31.7,30.29,WNW,287,0.0,0.0,88,0.00,,,0.00,16.0,custom,2013-02-26 15:01:00,
2013-02-26 07:06:00,35.0,31.8,30.29,WNW,287,0.0,0.0,88,0.00,,,0.00,19.0,custom,2013-02-26 15:06:00,
2013-02-26 07:11:00,35.3,32.1,30.29,WNW,287,0.0,0.0,88,0.00,,,0.00,21.0,custom,2013-02-26 15:11:00,
2013-02-26 07:16:00,35.7,32.2,30.29,WNW,287,0.0,0.0,87,0.00,,,0.00,26.0,custom,2013-02-26 15:16:00,
2013-02-26 07:21:00,36.0,32.5,30.29,WNW,287,0.0,0.0,87,0.00,,,0.00,28.0,custom,2013-02-26 15:21:00,
2013-02-26 07:26:00,36.2,32.7,30.29,WNW,287,0.0,0.0,87,0.00,,,0.00,30.0,custom,2013-02-26 15:26:00,
2013-02-26 07:31:00,36.5,33.0,30.29,WNW,287,0.0,0.0,87,0.00,,,0.00,32.0,custom,2013-02-26 15:31:00,
2013-02-26 07:36:00,36.9,33.4,30.29,WNW,287,0.0,0.0,87,0.00,,,0.00,32.0,custom,2013-02-26 15:36:00,
2013-02-26 07:41:00,37.3,33.8,30.30,WNW,287,0.0,0.0,87,0.00,,,0.00,91.0,custom,2013-02-26 15:41:00,
2013-02-26 07:51:00,38.5,34.7,30.29,WNW,287,0.0,0.0,86,0.00,,,0.00,109.0,custom,2013-02-26 15:51:00,
2013-02-26 07:56:00,39.4,35.6,30.29,WNW,287,0.0,0.0,86,0.00,,,0.00,107.0,custom,2013-02-26 15:56:00,
2013-02-26 08:01:00,40.5,36.9,30.29,WNW,287,0.0,0.0,87,0.00,,,0.00,125.0,custom,2013-02-26 16:01:00,
2013-02-26 08:06:00,41.2,37.6,30.30,WNW,287,0.0,0.0,87,0.00,,,0.00,77.0,custom,2013-02-26 16:06:00,
2013-02-26 08:11:00,41.7,38.1,30.30,WNW,287,0.0,0.0,87,0.00,,,0.00,95.0,custom,2013-02-26 16:11:00,
2013-02-26 08:16:00,42.4,38.8,30.30,WNW,287,0.0,0.0,87,0.00,,,0.00,95.0,custom,2013-02-26 16:16:00,
2013-02-26 08:21:00,43.2,39.6,30.30,WNW,287,0.0,0.0,87,0.00,,,0.00,146.0,custom,2013-02-26 16:21:00,
2013-02-26 08:26:00,44.0,40.1,30.29,West,269,0.0,0.0,86,0.00,,,0.00,171.0,custom,2013-02-26 16:26:00,
2013-02-26 08:31:00,44.8,41.5,30.30,West,270,0.0,0.0,88,0.00,,,0.00,76.0,custom,2013-02-26 16:31:00,
2013-02-26 08:36:00,46.2,40.1,30.30,West,264,0.0,1.0,79,0.00,,,0.00,81.0,custom,2013-02-26 16:36:00,
2013-02-26 08:46:00,49.2,37.1,30.30,South,185,0.0,0.0,63,0.00,,,0.00,141.0,custom,2013-02-26 16:46:00,
2013-02-26 08:51:00,50.1,36.8,30.30,South,185,0.0,0.0,60,0.00,,,0.00,81.0,custom,2013-02-26 16:51:00,
2013-02-26 08:56:00,50.8,36.6,30.30,South,185,0.0,0.0,58,0.00,,,0.00,128.0,custom,2013-02-26 16:56:00,
2013-02-26 09:01:00,51.5,37.2,30.30,ESE,119,0.0,1.0,58,0.00,,,0.00,190.0,custom,2013-02-26 17:01:00,
2013-02-26 09:06:00,52.2,35.6,30.30,ESE,120,0.0,0.0,53,0.00,,,0.00,171.0,custom,2013-02-26 17:06:00,
2013-02-26 09:11:00,53.0,35.9,30.30,ESE,120,0.0,0.0,52,0.00,,,0.00,114.0,custom,2013-02-26 17:11:00,
2013-02-26 09:16:00,53.6,35.9,30.30,ESE,115,0.0,0.0,51,0.00,,,0.00,190.0,custom,2013-02-26 17:16:00,
2013-02-26 09:21:00,54.1,35.4,30.29,ESE,115,0.0,0.0,49,0.00,,,0.00,86.0,custom,2013-02-26 17:21:00,
2013-02-26 09:26:00,54.5,34.7,30.29,SSE,157,0.0,3.0,47,0.00,,,0.00,47.0,custom,2013-02-26 17:26:00,
2013-02-26 09:31:00,54.8,34.4,30.29,SSE,157,0.0,0.0,46,0.00,,,0.00,86.0,custom,2013-02-26 17:31:00,
2013-02-26 09:36:00,55.3,34.3,30.29,SSE,156,0.0,0.0,45,0.00,,,0.00,325.0,custom,2013-02-26 17:36:00,
2013-02-26 09:41:00,55.9,34.9,30.29,NNW,337,0.0,2.0,45,0.00,,,0.00,355.0,custom,2013-02-26 17:41:00,
2013-02-26 09:46:00,56.4,34.2,30.29,NNW,340,1.0,0.0,43,0.00,,,0.00,545.0,custom,2013-02-26 17:46:00,
2013-02-26 09:51:00,56.8,34.0,30.29,WNW,303,1.0,4.0,42,0.00,,,0.00,559.0,custom,2013-02-26 17:51:00,
2013-02-26 09:56:00,57.2,33.7,30.29,NNE,17,2.0,3.0,41,0.00,,,0.00,564.0,custom,2013-02-26 17:56:00,
2013-02-26 10:01:00,57.4,33.3,30.29,NNW,344,2.0,0.0,40,0.00,,,0.00,589.0,custom,2013-02-26 18:01:00,
2013-02-26 10:06:00,57.8,33.6,30.29,North,355,1.0,0.0,40,0.00,,,0.00,598.0,custom,2013-02-26 18:06:00,
2013-02-26 10:11:00,58.2,32.7,30.29,NNW,342,1.0,1.0,38,0.00,,,0.00,610.0,custom,2013-02-26 18:11:00,
2013-02-26 10:16:00,58.5,33.0,30.29,NNE,21,1.0,0.0,38,0.00,,,0.00,624.0,custom,2013-02-26 18:16:00,
2013-02-26 10:21:00,58.9,33.3,30.29,WNW,302,1.0,0.0,38,0.00,,,0.00,631.0,custom,2013-02-26 18:21:00,
2013-02-26 10:26:00,59.0,32.8,30.29,North,9,1.0,1.0,37,0.00,,,0.00,643.0,custom,2013-02-26 18:26:00,
2013-02-26 10:31:00,59.4,33.1,30.29,NNE,19,1.0,1.0,37,0.00,,,0.00,652.0,custom,2013-02-26 18:31:00,
2013-02-26 10:36:00,59.8,33.5,30.28,NNE,18,1.0,0.0,37,0.00,,,0.00,661.0,custom,2013-02-26 18:36:00,
2013-02-26 10:41:00,60.2,33.8,30.28,North,360,1.0,0.0,37,0.00,,,0.00,668.0,custom,2013-02-26 18:41:00,
2013-02-26 10:46:00,60.8,33.0,30.28,NW,313,1.0,1.0,35,0.00,,,0.00,677.0,custom,2013-02-26 18:46:00,
2013-02-26 10:51:00,61.1,33.2,30.28,NNW,334,1.0,1.0,35,0.00,,,0.00,684.0,custom,2013-02-26 18:51:00,
2013-02-26 10:56:00,61.3,33.4,30.28,North,360,1.0,2.0,35,0.00,,,0.00,693.0,custom,2013-02-26 18:56:00,
2013-02-26 11:01:00,61.6,32.2,30.28,NW,306,1.0,1.0,33,0.00,,,0.00,696.0,custom,2013-02-26 19:01:00,
2013-02-26 11:06:00,61.7,32.3,30.27,NE,53,1.0,2.0,33,0.00,,,0.00,707.0,custom,2013-02-26 19:06:00,
2013-02-26 11:11:00,61.8,31.6,30.27,North,355,1.0,3.0,32,0.00,,,0.00,714.0,custom,2013-02-26 19:11:00,
2013-02-26 11:16:00,61.9,30.9,30.27,North,355,1.0,1.0,31,0.00,,,0.00,717.0,custom,2013-02-26 19:16:00,
2013-02-26 11:21:00,62.1,32.7,30.27,NW,321,1.0,0.0,33,0.00,,,0.00,721.0,custom,2013-02-26 19:21:00,
2013-02-26 11:26:00,62.3,32.1,30.27,NNE,13,1.0,3.0,32,0.00,,,0.00,729.0,custom,2013-02-26 19:26:00,
2013-02-26 11:31:00,62.6,32.3,30.27,NW,311,0.0,1.0,32,0.00,,,0.00,731.0,custom,2013-02-26 19:31:00,
2013-02-26 11:36:00,62.9,31.8,30.27,NW,306,1.0,0.0,31,0.00,,,0.00,731.0,custom,2013-02-26 19:36:00,
2013-02-26 11:41:00,63.0,30.2,30.27,NNE,32,1.0,1.0,29,0.00,,,0.00,738.0,custom,2013-02-26 19:41:00,
2013-02-26 11:46:00,63.0,31.1,30.27,WNW,302,1.0,1.0,30,0.00,,,0.00,740.0,custom,2013-02-26 19:46:00,
2013-02-26 11:51:00,63.1,30.3,30.26,NE,49,1.0,0.0,29,0.00,,,0.00,744.0,custom,2013-02-26 19:51:00,
2013-02-26 11:56:00,63.5,32.3,30.26,North,5,1.0,0.0,31,0.00,,,0.00,744.0,custom,2013-02-26 19:56:00,
2013-02-26 12:01:00,63.7,31.7,30.26,NNE,15,1.0,0.0,30,0.00,,,0.00,745.0,custom,2013-02-26 20:01:00,
2013-02-26 12:06:00,64.0,31.9,30.26,ENE,63,1.0,0.0,30,0.00,,,0.00,747.0,custom,2013-02-26 20:06:00,
2013-02-26 12:11:00,64.4,32.3,30.26,ENE,74,1.0,1.0,30,0.00,,,0.00,744.0,custom,2013-02-26 20:11:00,
2013-02-26 12:16:00,64.4,32.3,30.25,NW,325,1.0,0.0,30,0.00,,,0.00,747.0,custom,2013-02-26 20:16:00,
2013-02-26 12:21:00,64.6,33.3,30.25,East,85,0.0,0.0,31,0.00,,,0.00,747.0,custom,2013-02-26 20:21:00,
2013-02-26 12:26:00,64.8,32.6,30.25,North,9,1.0,1.0,30,0.00,,,0.00,745.0,custom,2013-02-26 20:26:00,
2013-02-26 12:31:00,64.7,32.6,30.25,NNE,13,2.0,3.0,30,0.00,,,0.00,742.0,custom,2013-02-26 20:31:00,
2013-02-26 12:36:00,64.7,32.6,30.25,WNW,292,2.0,3.0,30,0.00,,,0.00,742.0,custom,2013-02-26 20:36:00,
2013-02-26 12:41:00,65.0,32.8,30.25,East,96,1.0,1.0,30,0.00,,,0.00,737.0,custom,2013-02-26 20:41:00,
2013-02-26 12:46:00,65.1,32.9,30.24,North,360,1.0,3.0,30,0.00,,,0.00,737.0,custom,2013-02-26 20:46:00,
2013-02-26 12:51:00,65.1,32.1,30.24,North,11,1.0,1.0,29,0.00,,,0.00,733.0,custom,2013-02-26 20:51:00,
2013-02-26 12:56:00,65.3,32.2,30.24,ENE,78,1.0,3.0,29,0.00,,,0.00,731.0,custom,2013-02-26 20:56:00,
2013-02-26 13:01:00,65.3,32.2,30.23,East,80,1.0,0.0,29,0.00,,,0.00,724.0,custom,2013-02-26 21:01:00,
2013-02-26 13:06:00,65.6,32.5,30.23,North,360,1.0,1.0,29,0.00,,,0.00,719.0,custom,2013-02-26 21:06:00,
2013-02-26 13:11:00,65.7,31.7,30.23,WNW,294,1.0,4.0,28,0.00,,,0.00,717.0,custom,2013-02-26 21:11:00,
2013-02-26 13:16:00,65.8,31.8,30.23,NNE,12,1.0,1.0,28,0.00,,,0.00,712.0,custom,2013-02-26 21:16:00,
2013-02-26 13:21:00,65.9,32.7,30.23,WNW,298,1.0,1.0,29,0.00,,,0.00,703.0,custom,2013-02-26 21:21:00,
2013-02-26 13:26:00,66.1,32.0,30.22,NNE,12,1.0,0.0,28,0.00,,,0.00,696.0,custom,2013-02-26 21:26:00,
2013-02-26 13:31:00,66.1,32.9,30.22,WNW,298,1.0,1.0,29,0.00,,,0.00,689.0,custom,2013-02-26 21:31:00,
2013-02-26 13:36:00,66.2,33.0,30.22,NNE,19,1.0,0.0,29,0.00,,,0.00,680.0,custom,2013-02-26 21:36:00,
2013-02-26 13:41:00,66.5,33.3,30.22,North,355,1.0,1.0,29,0.00,,,0.00,671.0,custom,2013-02-26 21:41:00,
2013-02-26 13:46:00,66.5,31.5,30.22,WNW,290,2.0,3.0,27,0.00,,,0.00,663.0,custom,2013-02-26 21:46:00,
2013-02-26 13:51:00,66.5,33.3,30.21,NNE,13,2.0,2.0,29,0.00,,,0.00,657.0,custom,2013-02-26 21:51:00,
2013-02-26 13:56:00,66.5,32.4,30.21,NNW,332,1.0,1.0,28,0.00,,,0.00,647.0,custom,2013-02-26 21:56:00,
2013-02-26 14:01:00,66.6,32.5,30.21,NNW,333,2.0,3.0,28,0.00,,,0.00,636.0,custom,2013-02-26 22:01:00,
2013-02-26 14:06:00,66.6,31.6,30.21,NNW,340,2.0,2.0,27,0.00,,,0.00,631.0,custom,2013-02-26 22:06:00,
2013-02-26 14:11:00,66.6,31.6,30.21,North,349,2.0,2.0,27,0.00,,,0.00,615.0,custom,2013-02-26 22:11:00,
2013-02-26 14:16:00,66.7,31.7,30.21,NNE,19,2.0,0.0,27,0.00,,,0.00,608.0,custom,2013-02-26 22:16:00,
2013-02-26 14:21:00,66.8,32.6,30.21,NNW,336,1.0,1.0,28,0.00,,,0.00,596.0,custom,2013-02-26 22:21:00,
2013-02-26 14:26:00,67.3,32.2,30.21,NE,34,0.0,0.0,27,0.00,,,0.00,587.0,custom,2013-02-26 22:26:00,
2013-02-26 14:31:00,67.5,30.4,30.21,WNW,295,1.0,0.0,25,0.00,,,0.00,575.0,custom,2013-02-26 22:31:00,
2013-02-26 14:36:00,67.4,30.4,30.21,NNW,344,1.0,3.0,25,0.00,,,0.00,561.0,custom,2013-02-26 22:36:00,
2013-02-26 14:41:00,67.0,31.0,30.21,NNW,329,2.0,0.0,26,0.00,,,0.00,545.0,custom,2013-02-26 22:41:00,
2013-02-26 14:46:00,67.1,32.0,30.20,NNW,329,1.0,2.0,27,0.00,,,0.00,271.0,custom,2013-02-26 22:46:00,
2013-02-26 14:51:00,67.3,30.3,30.20,NW,315,0.0,2.0,25,0.00,,,0.00,519.0,custom,2013-02-26 22:51:00,
2013-02-26 14:56:00,67.4,31.3,30.20,North,350,1.0,0.0,26,0.00,,,0.00,512.0,custom,2013-02-26 22:56:00,
2013-02-26 15:01:00,67.5,30.4,30.20,North,5,1.0,3.0,25,0.00,,,0.00,84.0,custom,2013-02-26 23:01:00,
2013-02-26 15:06:00,67.5,30.4,30.20,NNE,18,1.0,0.0,25,0.00,,,0.00,482.0,custom,2013-02-26 23:06:00,
2013-02-26 15:11:00,67.6,31.5,30.20,NE,55,1.0,0.0,26,0.00,,,0.00,469.0,custom,2013-02-26 23:11:00,
2013-02-26 15:16:00,67.8,31.7,30.19,NE,55,0.0,1.0,26,0.00,,,0.00,427.0,custom,2013-02-26 23:16:00,
2013-02-26 15:21:00,67.7,29.6,30.20,NW,304,1.0,1.0,24,0.00,,,0.00,345.0,custom,2013-02-26 23:21:00,
2013-02-26 15:26:00,67.4,29.4,30.20,North,355,1.0,2.0,24,0.00,,,0.00,39.0,custom,2013-02-26 23:26:00,
2013-02-26 15:31:00,67.2,30.2,30.19,North,355,1.0,0.0,25,0.00,,,0.00,178.0,custom,2013-02-26 23:31:00,
2013-02-26 15:36:00,67.1,29.1,30.19,NNW,338,1.0,0.0,24,0.00,,,0.00,139.0,custom,2013-02-26 23:36:00,
2013-02-26 15:41:00,67.0,29.0,30.19,WNW,282,1.0,1.0,24,0.00,,,0.00,97.0,custom,2013-02-26 23:41:00,
2013-02-26 15:46:00,66.7,29.8,30.19,NNW,338,2.0,4.0,25,0.00,,,0.00,72.0,custom,2013-02-26 23:46:00,
2013-02-26 15:51:00,66.5,29.6,30.19,NNW,330,2.0,2.0,25,0.00,,,0.00,35.0,custom,2013-02-26 23:51:00,
2013-02-26 15:56:00,66.5,29.6,30.19,NW,316,2.0,2.0,25,0.00,,,0.00,35.0,custom,2013-02-26 23:56:00,
2013-02-26 16:01:00,66.5,30.6,30.19,WNW,284,1.0,3.0,26,0.00,,,0.00,56.0,custom,2013-02-27 00:01:00,
2013-02-26 16:06:00,66.6,30.6,30.19,NNW,343,1.0,0.0,26,0.00,,,0.00,37.0,custom,2013-02-27 00:06:00,
2013-02-26 16:11:00,66.6,30.6,30.19,NW,323,1.0,2.0,26,0.00,,,0.00,139.0,custom,2013-02-27 00:11:00,
2013-02-26 16:16:00,66.5,31.5,30.19,NNW,329,1.0,5.0,27,0.00,,,0.00,62.0,custom,2013-02-27 00:16:00,
2013-02-26 16:21:00,66.3,31.3,30.19,NNE,29,2.0,2.0,27,0.00,,,0.00,56.0,custom,2013-02-27 00:21:00,
2013-02-26 16:26:00,66.2,31.2,30.19,NNW,337,2.0,0.0,27,0.00,,,0.00,54.0,custom,2013-02-27 00:26:00,
2013-02-26 16:31:00,66.3,30.4,30.20,WNW,300,1.0,0.0,26,0.00,,,0.00,49.0,custom,2013-02-27 00:31:00,
2013-02-26 16:36:00,66.3,31.3,30.19,WNW,290,1.0,0.0,27,0.00,,,0.00,111.0,custom,2013-02-27 00:36:00,
2013-02-26 16:41:00,66.3,32.2,30.19,NNW,346,1.0,4.0,28,0.00,,,0.00,116.0,custom,2013-02-27 00:41:00,
2013-02-26 16:46:00,66.1,32.0,30.19,WNW,291,0.0,1.0,28,0.00,,,0.00,105.0,custom,2013-02-27 00:46:00,
2013-02-26 16:51:00,66.0,32.8,30.19,NNE,15,1.0,0.0,29,0.00,,,0.00,33.0,custom,2013-02-27 00:51:00,
2013-02-26 16:56:00,65.6,32.5,30.20,NNW,338,1.0,4.0,29,0.00,,,0.00,33.0,custom,2013-02-27 00:56:00,
2013-02-26 17:01:00,65.3,33.1,30.20,North,351,1.0,0.0,30,0.00,,,0.00,33.0,custom,2013-02-27 01:01:00,
2013-02-26 17:06:00,64.9,34.3,30.20,NNW,344,1.0,1.0,32,0.00,,,0.00,32.0,custom,2013-02-27 01:06:00,
2013-02-26 17:11:00,64.7,34.9,30.20,NW,325,1.0,0.0,33,0.00,,,0.00,32.0,custom,2013-02-27 01:11:00,
2013-02-26 17:16:00,64.4,35.4,30.20,NNW,333,1.0,2.0,34,0.00,,,0.00,30.0,custom,2013-02-27 01:16:00,
2013-02-26 17:21:00,64.1,35.9,30.20,NNW,343,1.0,0.0,35,0.00,,,0.00,28.0,custom,2013-02-27 01:21:00,
2013-02-26 17:26:00,63.8,35.6,30.20,NW,311,1.0,0.0,35,0.00,,,0.00,26.0,custom,2013-02-27 01:26:00,
2013-02-26 17:36:00,63.1,36.4,30.20,NNW,335,1.0,0.0,37,0.00,,,0.00,21.0,custom,2013-02-27 01:36:00,
2013-02-26 17:41:00,62.7,36.7,30.20,NW,322,0.0,0.0,38,0.00,,,0.00,18.0,custom,2013-02-27 01:41:00,
2013-02-26 17:46:00,62.3,37.0,30.20,NW,323,1.0,0.0,39,0.00,,,0.00,14.0,custom,2013-02-27 01:46:00,
2013-02-26 17:51:00,61.9,37.3,30.21,North,360,1.0,0.0,40,0.00,,,0.00,12.0,custom,2013-02-27 01:51:00,
2013-02-26 17:56:00,61.5,37.6,30.21,North,360,0.0,0.0,41,0.00,,,0.00,11.0,custom,2013-02-27 01:56:00,
2013-02-26 18:01:00,61.1,38.4,30.21,WNW,288,0.0,0.0,43,0.00,,,0.00,5.0,custom,2013-02-27 02:01:00,
2013-02-26 18:06:00,60.6,38.0,30.21,NNW,340,0.0,0.0,43,0.00,,,0.00,0.0,custom,2013-02-27 02:06:00,
2013-02-26 18:16:00,59.6,37.7,30.22,NW,309,0.0,0.0,44,0.00,,,0.00,0.0,custom,2013-02-27 02:16:00,
2013-02-26 18:22:00,59.0,36.5,30.22,NW,310,0.0,0.0,43,0.00,,,0.00,0.0,custom,2013-02-27 02:22:00,
2013-02-26 18:31:00,58.3,34.7,30.22,NW,304,0.0,0.0,41,0.00,,,0.00,0.0,custom,2013-02-27 02:31:00,
2013-02-26 18:36:00,57.9,34.3,30.22,WNW,288,0.0,0.0,41,0.00,,,0.00,0.0,custom,2013-02-27 02:36:00,
2013-02-26 18:41:00,57.5,34.0,30.22,WNW,287,0.0,0.0,41,0.00,,,0.00,0.0,custom,2013-02-27 02:41:00,
2013-02-26 18:46:00,57.1,34.2,30.22,WNW,288,0.0,0.0,42,0.00,,,0.00,0.0,custom,2013-02-27 02:46:00,
2013-02-26 18:51:00,56.7,33.9,30.22,WNW,288,0.0,0.0,42,0.00,,,0.00,0.0,custom,2013-02-27 02:51:00,
2013-02-26 18:56:00,56.3,33.5,30.23,WNW,288,0.0,0.0,42,0.00,,,0.00,0.0,custom,2013-02-27 02:56:00,
2013-02-26 19:01:00,55.9,33.7,30.23,WNW,287,0.0,0.0,43,0.00,,,0.00,0.0,custom,2013-02-27 03:01:00,
2013-02-26 19:06:00,55.4,33.3,30.23,WNW,288,0.0,0.0,43,0.00,,,0.00,0.0,custom,2013-02-27 03:06:00,
2013-02-26 19:11:00,55.0,32.9,30.23,WNW,288,0.0,0.0,43,0.00,,,0.00,0.0,custom,2013-02-27 03:11:00,
2013-02-26 19:16:00,54.5,33.6,30.23,WNW,287,0.0,0.0,45,0.00,,,0.00,0.0,custom,2013-02-27 03:16:00,
2013-02-26 19:21:00,54.1,33.8,30.23,WNW,288,0.0,0.0,46,0.00,,,0.00,0.0,custom,2013-02-27 03:21:00,
2013-02-26 19:26:00,53.8,34.0,30.23,WNW,288,0.0,0.0,47,0.00,,,0.00,0.0,custom,2013-02-27 03:26:00,
2013-02-26 19:31:00,53.5,34.3,30.24,WNW,288,0.0,0.0,48,0.00,,,0.00,0.0,custom,2013-02-27 03:31:00,
2013-02-26 19:36:00,53.1,33.9,30.24,WNW,287,0.0,0.0,48,0.00,,,0.00,0.0,custom,2013-02-27 03:36:00,
2013-02-26 19:41:00,52.7,34.1,30.24,WNW,288,0.0,0.0,49,0.00,,,0.00,0.0,custom,2013-02-27 03:41:00,
2013-02-26 19:46:00,52.3,34.2,30.24,WNW,288,0.0,0.0,50,0.00,,,0.00,0.0,custom,2013-02-27 03:46:00,
2013-02-26 19:51:00,51.9,34.3,30.24,WNW,287,0.0,0.0,51,0.00,,,0.00,0.0,custom,2013-02-27 03:51:00,
2013-02-26 19:56:00,51.4,34.4,30.24,WNW,287,0.0,0.0,52,0.00,,,0.00,0.0,custom,2013-02-27 03:56:00,
2013-02-26 20:01:00,51.0,34.5,30.24,WNW,288,0.0,0.0,53,0.00,,,0.00,0.0,custom,2013-02-27 04:01:00,
2013-02-26 20:06:00,50.6,34.6,30.24,WNW,288,0.0,0.0,54,0.00,,,0.00,0.0,custom,2013-02-27 04:06:00,
2013-02-26 20:11:00,50.2,34.7,30.25,WNW,288,0.0,0.0,55,0.00,,,0.00,0.0,custom,2013-02-27 04:11:00,
2013-02-26 20:16:00,49.8,34.7,30.25,WNW,287,0.0,0.0,56,0.00,,,0.00,0.0,custom,2013-02-27 04:16:00,
2013-02-26 20:21:00,49.4,34.8,30.25,WNW,288,0.0,0.0,57,0.00,,,0.00,0.0,custom,2013-02-27 04:21:00,
2013-02-26 20:26:00,49.1,34.5,30.25,WNW,287,0.0,0.0,57,0.00,,,0.00,0.0,custom,2013-02-27 04:26:00,
2013-02-26 20:31:00,48.7,34.6,30.26,WNW,287,0.0,0.0,58,0.00,,,0.00,0.0,custom,2013-02-27 04:31:00,
2013-02-26 20:36:00,48.4,34.3,30.25,WNW,288,0.0,0.0,58,0.00,,,0.00,0.0,custom,2013-02-27 04:36:00,
2013-02-26 20:41:00,48.0,34.4,30.26,WNW,288,0.0,0.0,59,0.00,,,0.00,0.0,custom,2013-02-27 04:41:00,
2013-02-26 20:46:00,47.7,34.5,30.26,WNW,288,0.0,0.0,60,0.00,,,0.00,0.0,custom,2013-02-27 04:46:00,
2013-02-26 20:51:00,47.4,34.2,30.26,WNW,287,0.0,0.0,60,0.00,,,0.00,0.0,custom,2013-02-27 04:51:00,
2013-02-26 20:56:00,47.2,34.4,30.26,WNW,288,0.0,0.0,61,0.00,,,0.00,0.0,custom,2013-02-27 04:56:00,
2013-02-26 21:01:00,46.9,34.2,30.26,WNW,288,0.0,0.0,61,0.00,,,0.00,0.0,custom,2013-02-27 05:01:00,
2013-02-26 21:06:00,46.5,34.2,30.26,WNW,287,0.0,0.0,62,0.00,,,0.00,0.0,custom,2013-02-27 05:06:00,
2013-02-26 21:11:00,46.2,33.9,30.26,WNW,287,0.0,0.0,62,0.00,,,0.00,0.0,custom,2013-02-27 05:11:00,
2013-02-26 21:16:00,45.9,33.6,30.26,WNW,288,0.0,0.0,62,0.00,,,0.00,0.0,custom,2013-02-27 05:16:00,
2013-02-26 21:26:00,45.3,33.5,30.27,WNW,288,0.0,0.0,63,0.00,,,0.00,0.0,custom,2013-02-27 05:26:00,
2013-02-26 21:31:00,45.0,33.6,30.27,WNW,288,0.0,0.0,64,0.00,,,0.00,0.0,custom,2013-02-27 05:31:00,
2013-02-26 21:36:00,44.8,33.8,30.27,WNW,288,0.0,0.0,65,0.00,,,0.00,0.0,custom,2013-02-27 05:36:00,
2013-02-26 21:41:00,44.5,33.5,30.27,WNW,287,0.0,0.0,65,0.00,,,0.00,0.0,custom,2013-02-27 05:41:00,
2013-02-26 21:46:00,44.2,33.2,30.28,WNW,287,0.0,0.0,65,0.00,,,0.00,0.0,custom,2013-02-27 05:46:00,
2013-02-26 21:51:00,44.0,33.0,30.28,WNW,288,0.0,0.0,65,0.00,,,0.00,0.0,custom,2013-02-27 05:51:00,
2013-02-26 21:56:00,43.7,33.1,30.28,WNW,288,0.0,0.0,66,0.00,,,0.00,0.0,custom,2013-02-27 05:56:00,
2013-02-26 22:01:00,43.5,32.9,30.27,WNW,288,0.0,0.0,66,0.00,,,0.00,0.0,custom,2013-02-27 06:01:00,
2013-02-26 22:06:00,43.3,33.1,30.28,WNW,287,0.0,0.0,67,0.00,,,0.00,0.0,custom,2013-02-27 06:06:00,
2013-02-26 22:11:00,43.1,32.9,30.27,WNW,288,0.0,0.0,67,0.00,,,0.00,0.0,custom,2013-02-27 06:11:00,
2013-02-26 22:16:00,42.8,32.6,30.27,WNW,288,0.0,0.0,67,0.00,,,0.00,0.0,custom,2013-02-27 06:16:00,
2013-02-26 22:21:00,42.6,32.4,30.27,WNW,288,0.0,0.0,67,0.00,,,0.00,0.0,custom,2013-02-27 06:21:00,
2013-02-26 22:26:00,42.4,32.6,30.27,WNW,287,0.0,0.0,68,0.00,,,0.00,0.0,custom,2013-02-27 06:26:00,
2013-02-26 22:31:00,42.3,32.9,30.27,WNW,288,0.0,0.0,69,0.00,,,0.00,0.0,custom,2013-02-27 06:31:00,
2013-02-26 22:36:00,42.1,32.7,30.27,WNW,288,0.0,0.0,69,0.00,,,0.00,0.0,custom,2013-02-27 06:36:00,
2013-02-26 22:41:00,41.9,32.8,30.27,WNW,287,0.0,0.0,70,0.00,,,0.00,0.0,custom,2013-02-27 06:41:00,
2013-02-26 22:46:00,41.7,32.6,30.27,WNW,288,0.0,0.0,70,0.00,,,0.00,0.0,custom,2013-02-27 06:46:00,
2013-02-26 22:51:00,41.5,32.8,30.28,WNW,288,0.0,0.0,71,0.00,,,0.00,0.0,custom,2013-02-27 06:51:00,
2013-02-26 22:56:00,41.4,32.7,30.28,WNW,288,0.0,0.0,71,0.00,,,0.00,0.0,custom,2013-02-27 06:56:00,
2013-02-26 23:01:00,41.2,32.9,30.28,WNW,287,0.0,0.0,72,0.00,,,0.00,0.0,custom,2013-02-27 07:01:00,
2013-02-26 23:06:00,41.0,32.7,30.28,WNW,288,0.0,0.0,72,0.00,,,0.00,0.0,custom,2013-02-27 07:06:00,
2013-02-26 23:11:00,40.9,32.6,30.28,WNW,288,0.0,0.0,72,0.00,,,0.00,0.0,custom,2013-02-27 07:11:00,
2013-02-26 23:16:00,40.8,32.5,30.28,WNW,287,0.0,0.0,72,0.00,,,0.00,0.0,custom,2013-02-27 07:16:00,
2013-02-26 23:21:00,40.6,32.3,30.28,WNW,287,0.0,0.0,72,0.00,,,0.00,0.0,custom,2013-02-27 07:21:00,
2013-02-26 23:26:00,40.4,32.1,30.28,WNW,288,0.0,0.0,72,0.00,,,0.00,0.0,custom,2013-02-27 07:26:00,
2013-02-26 23:31:00,40.2,32.2,30.28,WNW,288,0.0,0.0,73,0.00,,,0.00,0.0,custom,2013-02-27 07:31:00,
2013-02-26 23:36:00,40.1,32.2,30.29,WNW,288,0.0,0.0,73,0.00,,,0.00,0.0,custom,2013-02-27 07:36:00,
2013-02-26 23:41:00,40.0,32.1,30.29,WNW,287,0.0,0.0,73,0.00,,,0.00,0.0,custom,2013-02-27 07:41:00,
2013-02-26 23:46:00,40.0,32.1,30.29,WNW,288,0.0,0.0,73,0.00,,,0.00,0.0,custom,2013-02-27 07:46:00,
2013-02-26 23:51:00,39.9,32.0,30.30,WNW,288,0.0,0.0,73,0.00,,,0.00,0.0,custom,2013-02-27 07:51:00,
2013-02-26 23:56:00,39.8,31.9,30.29,WNW,287,0.0,0.0,73,0.00,,,0.00,0.0,custom,2013-02-27 07:56:00,